Location: Newark
(50.4348°N, 30.5552°E)
Time: 03:43:07
(UTC+00:00)

Altair - Pass Details

Date: 29 January 2020
Orbit: 1502 x 1682 km, 47.2° (Epoch: 16 February)

Event Time Altitude Azimuth Distance (km) Brightness Sun altitude
Rises 12:24:26 0° 289° (WNW) 4,941 10.3 15.5°
Reaches altitude 10° 12:28:12 10° 278° (W) 3,945 10.1 15.2°
Maximum altitude 12:36:11 28° 226° (SW) 2,764 10.8 14.5°
Drops below altitude 10° 12:44:02 10° 173° (S) 3,862 10.4 13.7°
Sets 12:47:43 0° 162° (SSE) 4,819 10.6 13.4°
